Meteo Giornale » Osservazioni meteo Italia » Rimini

ore: 22:20 - Osservazioni Meteo Rimini
Lat. 44° 2' N Lon. 12° 37' E Alt. 12 metri s.l.m.

nebbia Europe/Rome

13 °C

Nebbia

Temp. 24 Ore

7 °C

18 °C

Nord

1.8 Km/h

Dew point 12 °C

Umidità 93 %

Visibilità  0.9 Km

Il sole sorge alle ore 07:32

Il sole tramonta alle ore 18:15

Data e Ora Cielo e Fenomeni T °C DP °C Um. % Pres. hPa Vis. km Vento km/h
Oggi h: 22:20 nebbia Nebbia 13 12 93 1023 0.9 N 1.8
Oggi h: 21:50 nuvoloso Nuvoloso 13 13 100 1023 7 N 3.7
Oggi h: 21:20 sereno Sereno 13 12 93 1023 6 N 1.8
Oggi h: 20:50 sereno Sereno 14 13 93 1023 10 N 3.7
Oggi h: 20:20 sereno Sereno 14 13 93 1023 10 N 5.5
Oggi h: 19:50 sereno Sereno 15 13 87 1023 10 O 7.4
Oggi h: 19:20 sereno Sereno 15 13 87 1023 10 N 3.7
Oggi h: 18:50 poco_nuvoloso Poco Nuvoloso 16 13 82 1022 10 N 1.8
Oggi h: 18:20 poco_nuvoloso Poco Nuvoloso 17 13 77 1023 10 N 3.7
Oggi h: 17:50 poco_nuvoloso Poco Nuvoloso 17 14 82 1022 10 E/SE 9.3
Oggi h: 17:20 poco_nuvoloso Poco Nuvoloso 18 14 77 1022 10 E 11.1
Oggi h: 16:50 poco_nuvoloso Poco Nuvoloso 18 14 77 1022 10 E 11.1
Oggi h: 16:20 sereno Sereno 18 13 72 1023 8 E 13
Oggi h: 15:50 sereno Sereno 18 13 72 1023 8 E 13
Oggi h: 15:20 sereno Sereno 18 13 72 1023 7 E 13
Oggi h: 14:50 sereno Sereno 18 13 72 1023 7 E 11.1
Oggi h: 14:20 sereno Sereno 17 13 77 1023 7 E/NE 14.8
Oggi h: 13:50 sereno Sereno 17 13 77 1024 7 E/NE 13
Oggi h: 13:20 sereno Sereno 16 12 77 1024 7 E/NE 13
Oggi h: 12:50 sereno Sereno 17 12 72 1024 8 E 11.1
Oggi h: 12:20 sereno Sereno 17 12 72 1024 8 E/NE 9.3
Oggi h: 11:50 sereno Sereno 16 11 72 1025 10 E/NE 7.4
Oggi h: 11:20 sereno Sereno 16 11 72 1025 10 N 5.5
Oggi h: 10:50 sereno Sereno 15 10 72 1025 10 N/NE 7.4
Oggi h: 10:20 sereno Sereno 15 11 76 1025 10 N 9.3
Oggi h: 09:50 sereno Sereno 14 11 82 1025 10 N 1.8
Oggi h: 09:20 sereno Sereno 12 10 87 1025 10 N 1.8
Oggi h: 08:50 sereno Sereno 10 9 93 1025 10 S/SO 9.3
Oggi h: 08:20 sereno Sereno 8 8 100 1024 10 N 3.7
Oggi h: 07:50 sereno Sereno 7 7 100 1024 10 S 7.4
Oggi h: 07:20 sereno Sereno 7 7 100 1024 10 N 3.7
Oggi h: 05:50 sereno Sereno 8 8 100 1024 10 N 5.5
Oggi h: 05:20 sereno Sereno 9 8 93 1024 10 N 3.7
Oggi h: 04:50 sereno Sereno 9 8 93 1024 10 O/NO 7.4
Oggi h: 04:20 sereno Sereno 9 8 93 1024 10 NO 7.4
Oggi h: 03:50 sereno Sereno 9 7 87 1024 10 N 5.5
Oggi h: 03:20 sereno Sereno 9 8 93 1024 10 N 5.5
Oggi h: 02:50 sereno Sereno 9 8 93 1024 10 N 3.7
Oggi h: 02:20 sereno Sereno 8 8 100 1024 10 N 5.5
Oggi h: 01:20 sereno Sereno 9 8 93 1024 6 N 5.5
Oggi h: 00:50 foschia Foschia 9 9 100 1024 4 S/SO 9.3
Oggi h: 00:20 foschia Foschia 9 9 100 1024 4 N 5.5
Ieri h: 23:50 foschia Foschia 9 9 100 1024 3 N 5.5
Ieri h: 23:20 foschia Foschia 9 9 100 1024 2 N 5.5
Ieri h: 22:50 foschia Foschia 10 9 93 1024 1 N 5.5